When you browse on this site, cookies collect data to enhance your experience and personalize the content and advertising you see.
Visit our Privacy Policy to learn more. By continuing to use the site, you agree to this use of cookies and data.
EN

Hourly Weather Druzhkovka

Today, 12 August, Wednesday

Time Temperature Precipitation Wind Pressure Humidity
00:00 +21°C° 0.9 mm 1 mps 747 mmHg 77%
01:00 +21°C° 0 mm 1 mps 747 mmHg 77%
02:00 +20°C° 0 mm 1 mps 747 mmHg 78%
03:00 +20°C° 0 mm 1 mps 747 mmHg 78%
04:00 +20°C° 0 mm 1 mps 747 mmHg 78%
05:00 +19°C° 0 mm 2 mps 747 mmHg 79%
06:00 +19°C° 0 mm 2 mps 747 mmHg 80%
07:00 +20°C° 0 mm 2 mps 747 mmHg 72%
08:00 +23°C° 0 mm 2 mps 747 mmHg 64%
09:00 +25°C° 0 mm 2 mps 747 mmHg 56%
10:00 +26°C° 0 mm 2 mps 747 mmHg 52%
11:00 +28°C° 0 mm 3 mps 747 mmHg 47%
12:00 +29°C° 0 mm 3 mps 747 mmHg 42%
13:00 +29°C° 0 mm 4 mps 747 mmHg 42%
14:00 +29°C° 0 mm 4 mps 747 mmHg 42%
15:00 +29°C° 0 mm 4 mps 746 mmHg 42%
16:00 +28°C° 0 mm 5 mps 747 mmHg 43%
17:00 +28°C° 0 mm 5 mps 747 mmHg 44%
18:00 +27°C° 0 mm 5 mps 747 mmHg 45%
19:00 +25°C° 0 mm 4 mps 747 mmHg 51%
20:00 +22°C° 0 mm 4 mps 747 mmHg 56%
21:00 +21°C° 0 mm 3 mps 747 mmHg 62%
22:00 +19°C° 0 mm 3 mps 747 mmHg 66%
23:00 +18°C° 0 mm 3 mps 748 mmHg 69%

Tomorrow, 13 August, Thursday

Time Temperature Precipitation Wind Pressure Humidity
00:00 +17°C° 0 mm 3 mps 748 mmHg 73%
01:00 +17°C° 0 mm 3 mps 748 mmHg 74%
02:00 +16°C° 0 mm 3 mps 748 mmHg 75%
03:00 +14°C° 0 mm 3 mps 748 mmHg 76%
04:00 +13°C° 0 mm 3 mps 748 mmHg 77%
05:00 +13°C° 0 mm 3 mps 748 mmHg 78%
06:00 +13°C° 0 mm 3 mps 748 mmHg 78%
07:00 +16°C° 0 mm 3 mps 748 mmHg 71%
08:00 +18°C° 0 mm 3 mps 748 mmHg 64%
09:00 +20°C° 0 mm 4 mps 749 mmHg 57%
10:00 +21°C° 0 mm 4 mps 749 mmHg 51%
11:00 +22°C° 0 mm 4 mps 749 mmHg 46%
12:00 +25°C° 0 mm 5 mps 749 mmHg 41%
13:00 +25°C° 0 mm 5 mps 749 mmHg 40%
14:00 +25°C° 0 mm 5 mps 748 mmHg 40%
15:00 +24°C° 0 mm 6 mps 748 mmHg 39%
16:00 +23°C° 0 mm 6 mps 748 mmHg 41%
17:00 +23°C° 0 mm 6 mps 748 mmHg 43%
18:00 +22°C° 0 mm 6 mps 748 mmHg 45%
19:00 +20°C° 0 mm 4 mps 748 mmHg 51%
20:00 +18°C° 0 mm 3 mps 749 mmHg 57%
21:00 +17°C° 0 mm 2 mps 749 mmHg 63%
22:00 +16°C° 0 mm 2 mps 749 mmHg 65%
23:00 +15°C° 0 mm 2 mps 749 mmHg 67%

Day after tomorrow, 14 August, Friday

Time Temperature Precipitation Wind Pressure Humidity
00:00 +15°C° 0 mm 2 mps 749 mmHg 69%
01:00 +14°C° 0 mm 2 mps 749 mmHg 71%
02:00 +14°C° 0 mm 2 mps 749 mmHg 73%
03:00 +14°C° 0 mm 2 mps 749 mmHg 75%
04:00 +14°C° 0 mm 2 mps 749 mmHg 77%
05:00 +13°C° 0 mm 2 mps 749 mmHg 79%
06:00 +13°C° 0 mm 2 mps 749 mmHg 81%
07:00 +15°C° 0 mm 2 mps 749 mmHg 73%
08:00 +18°C° 0 mm 3 mps 749 mmHg 65%
09:00 +20°C° 0 mm 3 mps 749 mmHg 57%
10:00 +21°C° 0.1 mm 3 mps 749 mmHg 53%
11:00 +22°C° 0.1 mm 4 mps 749 mmHg 50%
12:00 +23°C° 0.1 mm 4 mps 749 mmHg 46%
13:00 +23°C° 0.4 mm 4 mps 749 mmHg 47%
14:00 +23°C° 0.4 mm 4 mps 748 mmHg 47%
15:00 +23°C° 0.4 mm 4 mps 748 mmHg 48%
16:00 +22°C° 0.1 mm 4 mps 748 mmHg 48%
17:00 +21°C° 0.1 mm 4 mps 748 mmHg 48%
18:00 +21°C° 0.1 mm 4 mps 748 mmHg 48%
19:00 +19°C° 0 mm 4 mps 749 mmHg 50%
20:00 +18°C° 0 mm 3 mps 749 mmHg 53%
21:00 +16°C° 0 mm 3 mps 749 mmHg 55%
22:00 +14°C° 0 mm 3 mps 749 mmHg 61%
23:00 +14°C° 0 mm 3 mps 750 mmHg 67%

15 August, Saturday

Time Temperature Precipitation Wind Pressure Humidity
00:00 +14°C° 0 mm 2 mps 750 mmHg 72%
01:00 +13°C° 0 mm 2 mps 750 mmHg 75%
02:00 +13°C° 0 mm 2 mps 750 mmHg 78%
03:00 +12°C° 0 mm 2 mps 750 mmHg 81%
04:00 +12°C° 0 mm 2 mps 750 mmHg 82%
05:00 +12°C° 0 mm 2 mps 750 mmHg 83%
06:00 +10°C° 0 mm 2 mps 750 mmHg 84%
07:00 +13°C° 0 mm 3 mps 750 mmHg 73%
08:00 +15°C° 0 mm 4 mps 751 mmHg 62%
09:00 +18°C° 0 mm 4 mps 751 mmHg 52%
10:00 +19°C° 0 mm 4 mps 751 mmHg 47%
11:00 +20°C° 0 mm 4 mps 751 mmHg 43%
12:00 +21°C° 0 mm 4 mps 751 mmHg 38%
13:00 +21°C° 0 mm 4 mps 751 mmHg 39%
14:00 +21°C° 0 mm 4 mps 751 mmHg 40%
15:00 +21°C° 0 mm 4 mps 751 mmHg 41%
16:00 +21°C° 0 mm 4 mps 751 mmHg 41%
17:00 +21°C° 0 mm 4 mps 751 mmHg 42%
18:00 +21°C° 0 mm 4 mps 751 mmHg 42%
19:00 +19°C° 0 mm 4 mps 751 mmHg 46%
20:00 +18°C° 0 mm 3 mps 751 mmHg 50%
21:00 +16°C° 0 mm 2 mps 751 mmHg 54%
22:00 +16°C° 0 mm 2 mps 751 mmHg 57%
23:00 +15°C° 0 mm 2 mps 751 mmHg 59%

16 August, Sunday

Time Temperature Precipitation Wind Pressure Humidity
00:00 +14°C° 0 mm 2 mps 751 mmHg 62%
01:00 +14°C° 0 mm 2 mps 751 mmHg 65%
02:00 +13°C° 0 mm 2 mps 751 mmHg 69%
03:00 +13°C° 0 mm 2 mps 751 mmHg 72%
04:00 +13°C° 0 mm 2 mps 751 mmHg 76%
05:00 +12°C° 0 mm 2 mps 751 mmHg 81%
06:00 +12°C° 0 mm 2 mps 751 mmHg 85%
07:00 +14°C° 0 mm 3 mps 751 mmHg 76%
08:00 +17°C° 0 mm 3 mps 751 mmHg 67%
09:00 +19°C° 0 mm 4 mps 751 mmHg 58%
10:00 +21°C° 0 mm 4 mps 751 mmHg 52%
11:00 +22°C° 0 mm 4 mps 751 mmHg 45%
12:00 +25°C° 0 mm 5 mps 751 mmHg 39%
13:00 +25°C° 0 mm 4 mps 751 mmHg 38%
14:00 +25°C° 0 mm 4 mps 751 mmHg 36%
15:00 +25°C° 0 mm 4 mps 751 mmHg 35%
16:00 +25°C° 0 mm 4 mps 751 mmHg 36%
17:00 +25°C° 0 mm 4 mps 751 mmHg 37%
18:00 +23°C° 0 mm 4 mps 750 mmHg 39%
19:00 +22°C° 0 mm 3 mps 751 mmHg 45%
20:00 +20°C° 0 mm 3 mps 751 mmHg 51%
21:00 +18°C° 0 mm 2 mps 751 mmHg 57%
22:00 +17°C° 0 mm 2 mps 751 mmHg 63%
23:00 +16°C° 0 mm 2 mps 751 mmHg 69%

17 August, Monday

Time Temperature Precipitation Wind Pressure Humidity
00:00 +16°C° 0 mm 2 mps 751 mmHg 74%
01:00 +15°C° 0 mm 1 mps 751 mmHg 76%
02:00 +15°C° 0 mm 1 mps 751 mmHg 78%
03:00 +15°C° 0 mm 1 mps 751 mmHg 79%
04:00 +15°C° 0 mm 1 mps 751 mmHg 79%
05:00 +15°C° 0 mm 1 mps 751 mmHg 78%
06:00 +15°C° 0 mm 1 mps 751 mmHg 78%
07:00 +18°C° 0 mm 1 mps 751 mmHg 71%
08:00 +20°C° 0 mm 1 mps 751 mmHg 64%
09:00 +22°C° 0 mm 1 mps 751 mmHg 57%
10:00 +23°C° 0 mm 2 mps 751 mmHg 52%
11:00 +25°C° 0 mm 2 mps 751 mmHg 48%
12:00 +26°C° 0 mm 2 mps 751 mmHg 44%
13:00 +27°C° 0 mm 2 mps 751 mmHg 41%
14:00 +28°C° 0 mm 2 mps 751 mmHg 39%
15:00 +28°C° 0 mm 2 mps 750 mmHg 36%
16:00 +28°C° 0 mm 2 mps 750 mmHg 38%
17:00 +28°C° 0 mm 2 mps 750 mmHg 39%
18:00 +27°C° 0 mm 2 mps 750 mmHg 41%
19:00 +26°C° 0 mm 2 mps 750 mmHg 44%
20:00 +24°C° 0 mm 2 mps 750 mmHg 48%
21:00 +23°C° 0 mm 2 mps 750 mmHg 52%
22:00 +22°C° 0 mm 1 mps 751 mmHg 55%
23:00 +21°C° 0 mm 1 mps 751 mmHg 58%
Show more